Regional Weather Roundup
Issued by NWS Jackson, KY

Home | Current Version | Previous Version | Text Only | Print | Product List | Glossary Off
Versions: 1 2 3 4 5 6 7 8 9 10 11 12 13 14 15 16 17 18 19 20 21 22 23 24 25 26 27 28 29 30 31 32 33 34 35 36 37 38 39 40 41 42 43 44 45 46 47 48 49 50

000
ASUS43 KJKL 272010
RWRJKL

EAST KENTUCKY HOURLY WEATHER ROUNDUP
NATIONAL WEATHER SERVICE JACKSON KY
400 PM EDT MON JUL 27 2015

NOTE: "FAIR" INDICATES FEW OR NO CLOUDS BELOW 12,000 FEET WITH
NO SIGNIFICANT WEATHER AND/OR OBSTRUCTIONS TO VISIBILITY.

* THESE REPORTS ARE NOT UNDER NWS QUALITY CONTROL AND MAY NOT
  REPORT WEATHER SUCH AS PRECIPITATION AND FOG.

KYZ079-080-083-085-087-088-110-112-115-119-120-272100
...EASTERN KENTUCKY...

CITY           SKY/WX    TMP DP  RH WIND       PRES   REMARKS
JACKSON        PTSUNNY   84  72  67 CALM      30.00F
LONDON         PTSUNNY   86  68  54 VRB3      30.00F
SOMERSET*      MOSUNNY   86  70  58 W5        29.99F HX  90
MONTICELLO*    PTSUNNY   90  73  57 CALM      30.01F HX  98
MIDDLESBORO*   PTSUNNY   89  73  59 W6        30.00F HX  96
HAZARD APT*    PTCLDY    86  72  62 SW7       30.00F HX  92
BLACK MTN*       N/A     73  70  88 CALM        N/A
PIKEVILLE APT* MOSUNNY   79  72  78 S5        30.02F
BIG SANDY*     CLOUDY    83  75  78 CALM      30.00F HX  90
MOREHEAD APT*  MOCLDY    84  72  65 CALM      30.00F
$$

KYZ035-036-041-042-044-050-067-078-099-272100
...CENTRAL KENTUCKY...

CITY           SKY/WX    TMP DP  RH WIND       PRES   REMARKS
MT STERLING*   MOSUNNY   86  73  66 SW7       29.99F HX  93
FLEMING/MASON* PTSUNNY   84  75  74 NE3       29.99F HX  92
DANVILLE*      CLOUDY    82  73  74 SW8       30.01S
RICHMOND*      CLOUDY    79  68  69 SW6       29.98F
LEXINGTON      MOSUNNY   86  73  65 NW5       29.99F HX  93
FRANKFORT      MOSUNNY   86  71  60 W7        29.97S HX  91
$$

KYZ091>093-OHZ055-061-077-WVZ005-015-034-035-042-272100
...SOUTHERN OHIO/WEST VIRGINIA...

CITY           SKY/WX    TMP DP  RH WIND       PRES   REMARKS
COVINGTON      MOSUNNY   87  72  60 E7        29.98S HX  93
COLUMBUS       PTSUNNY   80  71  74 W7        29.99S
DAYTON         PTSUNNY   83  71  67 VRB7      30.01S
WILMINGTON     PTSUNNY   80  71  74 CALM      30.00F
HUNTINGTON     PTSUNNY   81  71  71 W8        29.97F
CHARLESTON     MOSUNNY   88  72  58 VRB3      29.97F HX  94
PINEVILLE*     MOSUNNY   83  74  75 MISG      30.08F HX  90
BECKLEY        MOSUNNY   81  66  60 W5        30.07F
BLUEFIELD      CLOUDY    80  65  59 N3        30.10F
$$

VAZ002-007-008-TNZ017-027-036-066-071-272100
...SOUTHWEST VIRGINIA/EAST TENNESSEE...

CITY           SKY/WX    TMP DP  RH WIND       PRES   REMARKS
WISE*          MOSUNNY   81  66  61 SE9       30.11F
ABINGDON*      PTSUNNY   81  70  70 W3        30.07F
BRISTOL        LGT RAIN  79  72  79 VRB5      30.02F
KNOXVILLE      CLOUDY    90  70  51 SW6       29.98F HX  95
OAK RIDGE      PTSUNNY   88  68  51 E5        30.00F HX  91
CROSSVILLE     MOSUNNY   86  68  54 CALM      30.05F
NASHVILLE      PTSUNNY   94  70  45 W7        29.96F HX 100
$$

...KEY TO REMARKS...
VSB - VISIBILITY IN MILES
WCI - WIND CHILL INDEX
HX  - HEAT INDEX

$$


USA.gov is the U.S. government's official web portal to all federal, state and local government web resources and services.